IRIDIUM 33 DEB

Satellite information

Favourite Embed

Satellite Type and Status

DEBRISIN ORBIT

Key statistics

Satellite IRIDIUM 33 DEB at a glance.

Uptime

10317

Days in orbit

Revolutions

≈ 14.4

Per day

Orbit

LEO

Low Earth Orbit

Inclination

86.4

Latest

Satellite identification and parameters

Extended collection of information and parameters for IRIDIUM 33 DEB.

Object identification

Identified? True

Debris? True

Object name: IRIDIUM 33 DEB

International designator: 1997-051N

Object number (NORAD): 33775

Object ID (CCSDS): 33775

Country: UNITED STATES OF AMERICA (US)

Current information (Y/N): Y

RCS size: MEDIUM

Orbital parameters

Period: 99.898 minutes

Inclination: 86.3638 deg

SMA: 7131.792 km

Apoapsis: 763.809 km

Periapsis: 743.505 km

RAAN: 49.7737 deg

Eccentricy: 0.0014235

Argument of periapsis: 156.1691 deg

Mean anomaly: 263.4776 deg

Mean motion: 14.41467189 rev/day

Mean motion (dot): 0.00001672 rev/day2

B* drag term: 0.00050901024 1/REarth

Two-line elements (TLE)

Creation date: Dec. 12, 2025, 10:14 a.m.

Reference frame: TEME

Reference center: EARTH

Epoch: Dec. 12, 2025, 5:23 a.m. UTC

TLE line 0: 0 IRIDIUM 33 DEB

TLE line 1: 1 33775U 97051N 25346.22439990 .00001672 00000-0 50901-3 0 9999

TLE line 2: 2 33775 86.3638 49.7737 0014235 156.1691 263.4776 14.41467189881335

Live tracking on map

Real-time ground track for satellite IRIDIUM 33 DEB.

In-orbit conjunctions

A list of the most updated potential collisions computed for object IRIDIUM 33 DEB.

Target Orbit TCA Probability of collision Miss distance Type
SL-8 R/B LEO 2025-10-09 06:23:34 0.001326313 125.0 (m) ROCKET BODY
COSMOS 2251 DEB LEO 2024-08-27 01:55:35 0.000105589 727.0 (m) DEBRIS
FENGYUN 1C DEB SSO 2024-08-25 14:13:52 0.000101868 206.0 (m) DEBRIS
COSMOS 1867 COOLANT LEO 2024-08-08 10:39:16 0.0003645365 143.0 (m) DEBRIS
IRIDIUM 71 LEO 2024-06-20 19:10:53 0.0006737331 818.0 (m) PAYLOAD

Associated space launch

Iridium provides global mobile telecommunications services using a constellation of 66 low earth orbit satellites in a 86.4° inclined orbit. Although 77 satellites were originally envisioned for the system and spawned the name based on the 77th element in the periodic table, the system has been scaled back. Motorola's Satellite Communications Group designed and manufactured the Iridium satellites with Lockheed Martin providing the LM-700A spacecraft buses.

IRIDIUM 33 DEB was lifted into orbit during the mission ‘Proton-K/17S40 | Iridium 27 to 33’, on board a Proton-K/17S40 space rocket.

The launch took place on Sept. 14, 1997, 1:36 a.m. from 81/23 (81L).

For more information about the launch, click the button.

Launch to space Proton-K/17S40 | Iridium 27 to 33
Proton-K/17S40 | Iridium 27 to 33

Agency: N/A

Status: Launch Successful

Launch date: Sept. 14, 1997, 1:36 a.m. UTC

Rocket: Proton-K/17S40

Launch pad: 81/23 (81L)

Location: Baikonur Cosmodrome, Republic of Kazakhstan

...

Latest news about this satellite

There are no fresh news available about this satellite. Check back as we update our databases every day.


Newsletter sign-up

Weekly statistics, charts and insights to help you stay on top of the space industry.